Iowa Falls, IA

3:28 AM CDT on April 29, 2017 (GMT -0500)
Iowa Falls Municipal

Weather History for KIFA - May, 2013

Change the Weather History Date:

Saturday, May 11, 2013

  Actual Average Record
Temperature  
Mean Temperature 48 °F -  
Max Temperature 54 °F 71 °F 85 °F (1958)
Min Temperature 39 °F 48 °F 31 °F (1951)
Degree Days  
Heating Degree Days 18    
Moisture  
Dew Point 32 °F    
Average Humidity 54    
Maximum Humidity 85    
Minimum Humidity 28    
Precipitation  
Precipitation 0.00 in - - ()
Sea Level Pressure  
Sea Level Pressure 30.10 in    
Wind  
Wind Speed 18 mph (NW)    
Max Wind Speed 32 mph    
Max Gust Speed 41 mph    
Visibility 10 miles    
Events      
Averages and records for this station are not official NWS values.
T = Trace of Precipitation, MM = Missing Value Source: NWS Daily Summary

Daily Weather History Graph

Daily Weather History Graph

Search for Another Location

Airport or City:

Trip Planner

Search our weather history database for the weather conditions in past years. The results will help you decide how hot, cold, wet, or windy it might be!

Date:

Astronomy

May. 11, 2013 Rise Set
Actual Time 5:55 AM CDT 8:24 PM CDT
Civil Twilight 5:23 AM CDT 8:56 PM CDT
Nautical Twilight 4:43 AM CDT 9:35 PM CDT
Astronomical Twilight 3:59 AM CDT 10:20 PM CDT
Moon 7:02 AM CDT (5/11) 10:05 PM CDT (5/11)
Length of Visible Light 15h 32m
Length of Day
14h 28m
Waxing Crescent, 3% of the Moon is Illuminated
May 11
Waxing Crescent
May 17
First Quarter
May 24
Full
May 31
Last Quarter
Jun 8
New

Hourly Weather History & Observations

Time (CDT) Temp. Windchill Dew Point Humidity Pressure Visibility Wind Dir Wind Speed Gust Speed Precip Events Conditions
12:15 AM 50.0 °F - 45.5 °F 85% 29.98 in 10.0 mi SW 8.1 mph - N/A   Clear
12:35 AM 50.0 °F - 44.8 °F 82% 29.97 in 10.0 mi SW 6.9 mph - N/A   Clear
12:55 AM 49.5 °F - 44.8 °F 84% 29.97 in 10.0 mi SSW 10.4 mph - N/A   Clear
1:15 AM 50.4 °F - 44.6 °F 81% 29.96 in 10.0 mi SSW 9.2 mph - N/A   Scattered Clouds
1:35 AM 49.6 °F - 45.0 °F 84% 29.96 in 10.0 mi SW 6.9 mph - N/A   Mostly Cloudy
1:55 AM 50.2 °F - 45.1 °F 83% 29.95 in 10.0 mi SW 8.1 mph - N/A   Mostly Cloudy
2:15 AM 50.0 °F - 45.3 °F 84% 29.94 in 10.0 mi SW 9.2 mph - N/A   Mostly Cloudy
2:35 AM 50.9 °F - 44.8 °F 80% 29.94 in 10.0 mi WSW 10.4 mph - N/A   Mostly Cloudy
2:55 AM 51.8 °F - 43.9 °F 74% 29.96 in 10.0 mi West 16.1 mph - N/A   Scattered Clouds
3:15 AM 53.1 °F - 44.1 °F 71% 29.96 in 10.0 mi WNW 19.6 mph 23.0 mph N/A   Scattered Clouds
3:35 AM 52.9 °F - 43.0 °F 69% 29.97 in 10.0 mi NW 23.0 mph 29.9 mph N/A   Mostly Cloudy
3:55 AM 51.6 °F - 43.0 °F 72% 29.97 in 10.0 mi NW 19.6 mph 23.0 mph N/A   Mostly Cloudy
4:15 AM 50.9 °F - 41.9 °F 71% 29.99 in 10.0 mi NW 21.9 mph 28.8 mph N/A   Mostly Cloudy
4:35 AM 49.8 °F - 41.5 °F 73% 29.99 in 10.0 mi NW 20.7 mph 26.5 mph N/A   Overcast
4:55 AM 48.4 °F - 40.5 °F 74% 30.00 in 10.0 mi NW 19.6 mph 28.8 mph N/A   Scattered Clouds
5:15 AM 47.3 °F - 39.7 °F 75% 30.01 in 10.0 mi NW 21.9 mph 31.1 mph N/A   Clear
5:35 AM 46.4 °F 38.3 °F 39.2 °F 76% 30.02 in 10.0 mi NW 23.0 mph 28.8 mph N/A   Clear
5:55 AM 45.7 °F 38.8 °F 39.0 °F 78% 30.03 in 10.0 mi NW 16.1 mph 25.3 mph N/A   Clear
6:15 AM 45.0 °F 37.6 °F 38.7 °F 79% 30.04 in 10.0 mi NW 17.3 mph - N/A   Clear
6:35 AM 45.1 °F 37.6 °F 37.8 °F 75% 30.05 in 10.0 mi NW 18.4 mph 24.2 mph N/A   Clear
6:55 AM 45.1 °F 37.1 °F 37.6 °F 75% 30.06 in 10.0 mi NW 20.7 mph - N/A   Clear
7:15 AM 45.5 °F 36.9 °F 37.2 °F 73% 30.07 in 10.0 mi NW 24.2 mph 31.1 mph N/A   Clear
7:35 AM 45.5 °F 37.8 °F 36.9 °F 72% 30.08 in 10.0 mi NW 19.6 mph 33.4 mph N/A   Clear
7:55 AM 45.5 °F 36.9 °F 36.7 °F 71% 30.09 in 10.0 mi NW 24.2 mph 35.7 mph N/A   Clear
8:15 AM 46.4 °F 38.5 °F 36.3 °F 68% 30.10 in 10.0 mi NW 21.9 mph 28.8 mph N/A   Clear
8:35 AM 46.8 °F - 36.0 °F 66% 30.10 in 10.0 mi NW 18.4 mph 24.2 mph N/A   Clear
8:55 AM 47.5 °F - 34.7 °F 61% 30.11 in 10.0 mi NW 24.2 mph 28.8 mph N/A   Clear
9:15 AM 47.8 °F - 32.0 °F 54% 30.11 in 10.0 mi NW 23.0 mph 32.2 mph N/A   Clear
9:35 AM 48.7 °F - 31.6 °F 52% 30.12 in 10.0 mi NW 28.8 mph 34.5 mph N/A   Clear
9:55 AM 49.1 °F - 30.9 °F 50% 30.12 in 10.0 mi NNW 26.5 mph 33.4 mph N/A   Clear
10:15 AM 49.8 °F - 31.5 °F 49% 30.13 in 10.0 mi NNW 27.6 mph 34.5 mph N/A   Scattered Clouds
10:35 AM 50.2 °F - 31.8 °F 49% 30.13 in 10.0 mi NNW 24.2 mph - N/A   Scattered Clouds
10:55 AM 50.7 °F - 31.8 °F 48% 30.14 in 10.0 mi NW 28.8 mph 35.7 mph N/A   Scattered Clouds
11:15 AM 51.6 °F - 34.0 °F 51% 30.14 in 10.0 mi NW 27.6 mph 39.1 mph N/A   Mostly Cloudy
11:35 AM 50.2 °F - 31.1 °F 48% 30.14 in 10.0 mi NW 25.3 mph 39.1 mph N/A   Mostly Cloudy
11:55 AM 50.5 °F - 30.6 °F 46% 30.14 in 10.0 mi NW 31.1 mph 38.0 mph N/A   Mostly Cloudy
12:15 PM 50.9 °F - 31.8 °F 48% 30.14 in 10.0 mi NW 28.8 mph 35.7 mph N/A   Mostly Cloudy
12:35 PM 51.3 °F - 30.2 °F 44% 30.15 in 10.0 mi NW 29.9 mph 39.1 mph N/A   Mostly Cloudy
12:55 PM 50.9 °F - 29.1 °F 43% 30.15 in 10.0 mi NW 26.5 mph 38.0 mph N/A   Mostly Cloudy
1:15 PM 51.3 °F - 30.0 °F 44% 30.14 in 10.0 mi NW 27.6 mph 36.8 mph N/A   Mostly Cloudy
1:35 PM 51.3 °F - 28.0 °F 41% 30.14 in 10.0 mi NW 25.3 mph 38.0 mph N/A   Mostly Cloudy
1:55 PM 52.5 °F - 27.5 °F 38% 30.15 in 10.0 mi NW 29.9 mph 38.0 mph N/A   Scattered Clouds
2:15 PM 53.6 °F - 28.8 °F 39% 30.15 in 10.0 mi NW 32.2 mph 39.1 mph N/A   Mostly Cloudy
2:35 PM 53.4 °F - 28.2 °F 38% 30.15 in 10.0 mi NW 21.9 mph 41.4 mph N/A   Mostly Cloudy
2:55 PM 54.5 °F - 27.5 °F 35% 30.15 in 10.0 mi NW 31.1 mph 38.0 mph N/A   Scattered Clouds
3:15 PM 54.1 °F - 26.8 °F 35% 30.15 in 10.0 mi NW 29.9 mph 40.3 mph N/A   Scattered Clouds
3:35 PM 54.0 °F - 26.1 °F 34% 30.14 in 10.0 mi NW 32.2 mph 40.3 mph N/A   Scattered Clouds
3:55 PM 53.6 °F - 23.4 °F 31% 30.14 in 10.0 mi NNW 31.1 mph 40.3 mph N/A   Scattered Clouds
4:15 PM 53.8 °F - 23.7 °F 31% 30.15 in 10.0 mi WNW 26.5 mph 34.5 mph N/A   Scattered Clouds
4:35 PM 53.8 °F - 24.4 °F 32% 30.15 in 10.0 mi NW 32.2 mph 38.0 mph N/A   Scattered Clouds
4:55 PM 53.8 °F - 23.5 °F 31% 30.15 in 10.0 mi NW 31.1 mph 38.0 mph N/A   Scattered Clouds
5:15 PM 53.4 °F - 21.9 °F 29% 30.15 in 10.0 mi NW 29.9 mph 36.8 mph N/A   Clear
5:35 PM 53.4 °F - 21.6 °F 29% 30.15 in 10.0 mi NW 31.1 mph 36.8 mph N/A   Clear
5:55 PM 53.1 °F - 21.9 °F 30% 30.15 in 10.0 mi NW 26.5 mph 35.7 mph N/A   Clear
6:15 PM 52.9 °F - 20.3 °F 28% 30.15 in 10.0 mi NW 24.2 mph 38.0 mph N/A   Clear
6:35 PM 52.7 °F - 20.3 °F 28% 30.15 in 10.0 mi NW 24.2 mph 33.4 mph N/A   Clear
6:55 PM 52.0 °F - 21.2 °F 30% 30.15 in 10.0 mi NW 25.3 mph 32.2 mph N/A   Clear
7:15 PM 51.4 °F - 21.0 °F 30% 30.16 in 10.0 mi NW 21.9 mph 31.1 mph N/A   Clear
7:35 PM 50.7 °F - 21.2 °F 31% 30.16 in 10.0 mi NW 19.6 mph 28.8 mph N/A   Clear
7:55 PM 49.6 °F - 22.1 °F 34% 30.16 in 10.0 mi NW 17.3 mph 26.5 mph N/A   Clear
8:15 PM 48.7 °F - 21.4 °F 34% 30.16 in 10.0 mi NW 18.4 mph - N/A   Clear
8:35 PM 47.7 °F - 21.6 °F 36% 30.16 in 10.0 mi NW 17.3 mph - N/A   Clear
8:55 PM 46.0 °F 40.2 °F 24.1 °F 42% 30.17 in 10.0 mi NW 12.7 mph - N/A   Clear
9:15 PM 44.4 °F 38.6 °F 25.9 °F 48% 30.17 in 10.0 mi WNW 11.5 mph - N/A   Clear
9:35 PM 43.9 °F 38.3 °F 26.1 °F 50% 30.18 in 10.0 mi NW 10.4 mph - N/A   Clear
9:55 PM 43.3 °F 37.7 °F 25.9 °F 50% 30.19 in 10.0 mi NW 10.4 mph - N/A   Clear
10:15 PM 43.0 °F 36.4 °F 25.7 °F 51% 30.19 in 10.0 mi NW 12.7 mph - N/A   Clear
10:35 PM 42.4 °F 36.5 °F 26.1 °F 52% 30.19 in 10.0 mi NW 10.4 mph - N/A   Clear
10:55 PM 41.5 °F 35.0 °F 26.4 °F 55% 30.19 in 10.0 mi WNW 11.5 mph - N/A   Clear
11:15 PM 41.5 °F 35.4 °F 25.9 °F 54% 30.19 in 10.0 mi NW 10.4 mph - N/A   Clear
11:35 PM 41.0 °F 35.2 °F 26.1 °F 55% 30.19 in 10.0 mi NW 9.2 mph - N/A   Clear
11:55 PM 39.4 °F 33.2 °F 26.6 °F 60% 30.19 in 10.0 mi NW 9.2 mph - N/A   Clear